Flag for Pakistan Weather past 2 weeks in Narowal, Pakistan

Now
97 °F

Scattered clouds.


Feels Like: 94 °F
Forecast: 67 / 100 °F
Wind: 14 mph from Northwest

Location: Amritsar Airport

Current Time: Apr 28, 2015 at 4:31:12 PM

Latest Report: Apr 28, 2015 at 3:30 PM


Visibility: 2 mi

Pressure: 29.68 "Hg

Humidity: 20%

Dew point: 50 °F

Location of NarowalLocation

Historic Weather in Narowal — Graph

°F

Narowal temperature yesterday

Maximum temperature yesterday: 93 °F (at 5:00 PM)
Minimum temperature yesterday: 77 °F (at 11:30 PM)
Average temperature yesterday: 85 °F

Past Weeks' High & Low Weather Summary

 TemperatureHumidityPressure
High102 °F (Apr 24, 1:30 PM)100% (Apr 16, 8:00 AM)30.12 "Hg (Apr 16, 8:00 AM)
Low63 °F (Apr 17, 3:30 AM)14% (Apr 23, 4:00 PM)29.59 "Hg (Apr 19, 6:00 PM)
Average81 °F55%29.78 "Hg
* Reported Apr 13 4:00 PM — Apr 28 3:00 PM, Narowal, Weather by CustomWeather, © 2015

Note: Actual official high and low records may vary slightly from our data, if they occured in-between our weather recording intervals... More about our weather records

Advertising

Narowal weather history for previous 24 hours

 ConditionsComfort  
Time TempWeatherWind HumidityBarometerVisibility
3:00 PM
Tue, Apr 28
99 °FScattered clouds.17 mph18%29.71 "Hg2 mi
2:30 PM97 °FScattered clouds.10 mph22%29.71 "Hg2 mi
2:00 PM97 °FScattered clouds.15 mph23%29.71 "Hg2 mi
1:30 PM97 °FScattered clouds.12 mph27%29.71 "Hg2 mi
1:00 PM97 °FScattered clouds.10 mph27%29.74 "Hg2 mi
12:30 PM97 °FScattered clouds.12 mph27%29.77 "Hg2 mi
12:00 PM95 °FPassing clouds.14 mph28%29.77 "Hg2 mi
11:30 AM95 °FPassing clouds.12 mph28%29.77 "Hg2 mi
11:00 AM95 °FDuststorm.14 mph26%29.77 "Hg2 mi
10:30 AM93 °FDuststorm.12 mph28%29.77 "Hg2 mi
10:00 AM93 °FDuststorm.10 mph26%29.77 "Hg2 mi
9:30 AM90 °FDuststorm.10 mph29%29.77 "Hg2 mi
9:00 AM86 °FDuststorm.10 mph33%29.77 "Hg3 mi
8:30 AM84 °FDuststorm.6 mph35%29.77 "Hg3 mi
7:30 AM77 °FHaze.10 mph47%29.77 "Hg3 mi
7:00 AM73 °FHaze.7 mph57%29.77 "Hg3 mi
6:30 AM72 °FHaze.7 mph61%29.74 "Hg3 mi
6:00 AM70 °FScattered clouds.3 mph64%29.74 "Hg2 mi
5:30 AM70 °FHaze.No wind64%29.74 "Hg2 mi
5:00 AM70 °FHaze.No wind64%29.74 "Hg2 mi
4:30 AM70 °FHaze.No wind64%29.74 "Hg2 mi
4:00 AM70 °FHaze.2 mph64%29.74 "Hg2 mi
3:00 AM72 °FHaze.3 mph65%29.74 "Hg2 mi
2:30 AM73 °FHaze.3 mph65%29.71 "Hg2 mi
2:00 AM73 °FHaze.No wind69%29.71 "Hg2 mi
1:00 AM75 °FHaze.No wind65%29.71 "Hg2 mi
12:00 AM77 °FHaze.No wind61%29.74 "Hg2 mi
11:30 PM
Mon, Apr 27
77 °FHaze.6 mph61%29.74 "Hg2 mi
11:00 PM81 °FHaze.No wind54%29.77 "Hg2 mi
10:30 PM82 °FPassing clouds.5 mph51%29.77 "Hg2 mi
10:00 PM81 °FPassing clouds.No wind58%29.77 "Hg2 mi
9:30 PM82 °FPassing clouds.No wind55%29.77 "Hg2 mi
9:00 PM82 °FPassing clouds.3 mph55%29.77 "Hg2 mi
8:30 PM86 °FThunderstorms. Mostly cloudy.8 mph49%29.77 "Hg2 mi
8:00 PM86 °FThunderstorms. Mostly cloudy.8 mph49%29.77 "Hg2 mi
7:30 PM88 °FThunderstorms. Mostly cloudy.8 mph46%29.74 "Hg2 mi
7:00 PM90 °FThunderstorms. More clouds than sun.9 mph43%29.74 "Hg2 mi
6:30 PM90 °FBroken clouds.1 mph41%29.74 "Hg2 mi
6:00 PM91 °FBroken clouds.7 mph38%29.71 "Hg2 mi
5:00 PM93 °FBroken clouds.8 mph39%29.74 "Hg2 mi
Weather by CustomWeather, © 2015

See weather overviewHow to use our weather pages